EN

Hourly Weather Kyyanytsya

Today, 30 July, Friday

Time Temperature Precipitation Wind Pressure Humidity
00:00 +20°C° 0.3 mm 2 mps 738 mmHg 84%
01:00 +20°C° 0.3 mm 2 mps 738 mmHg 88%
02:00 +20°C° 0 mm 2 mps 738 mmHg 91%
03:00 +20°C° 0 mm 2 mps 738 mmHg 91%
04:00 +20°C° 0 mm 2 mps 737 mmHg 92%
05:00 +20°C° 0 mm 2 mps 737 mmHg 93%
06:00 +21°C° 0.1 mm 2 mps 738 mmHg 87%
07:00 +24°C° 0.1 mm 3 mps 738 mmHg 81%
08:00 +25°C° 0.1 mm 3 mps 738 mmHg 76%
09:00 +26°C° 0 mm 3 mps 738 mmHg 68%
10:00 +28°C° 0 mm 4 mps 738 mmHg 60%
11:00 +30°C° 0 mm 4 mps 738 mmHg 52%
12:00 +30°C° 0 mm 4 mps 738 mmHg 49%
13:00 +32°C° 0 mm 4 mps 738 mmHg 45%
14:00 +33°C° 0 mm 5 mps 738 mmHg 41%
15:00 +32°C° 0 mm 4 mps 738 mmHg 42%
16:00 +30°C° 0 mm 4 mps 738 mmHg 44%
17:00 +29°C° 0 mm 4 mps 737 mmHg 45%
18:00 +28°C° 0 mm 4 mps 738 mmHg 48%
19:00 +27°C° 0 mm 3 mps 738 mmHg 50%
20:00 +26°C° 0 mm 3 mps 739 mmHg 53%
21:00 +25°C° 0 mm 2 mps 739 mmHg 55%
22:00 +24°C° 0 mm 2 mps 739 mmHg 56%
23:00 +24°C° 0 mm 2 mps 740 mmHg 58%

Tomorrow, 31 July, Saturday

Time Temperature Precipitation Wind Pressure Humidity
00:00 +23°C° 0 mm 2 mps 740 mmHg 62%
01:00 +21°C° 0 mm 1 mps 740 mmHg 65%
02:00 +20°C° 0 mm 1 mps 740 mmHg 68%
03:00 +20°C° 0 mm 1 mps 740 mmHg 69%
04:00 +20°C° 0 mm 1 mps 740 mmHg 69%
05:00 +20°C° 0 mm 1 mps 740 mmHg 70%
06:00 +23°C° 0 mm 1 mps 740 mmHg 62%
07:00 +25°C° 0 mm 2 mps 740 mmHg 54%
08:00 +27°C° 0 mm 3 mps 741 mmHg 46%
09:00 +28°C° 0 mm 3 mps 741 mmHg 42%
10:00 +30°C° 0 mm 3 mps 741 mmHg 38%
11:00 +32°C° 0 mm 4 mps 741 mmHg 35%
12:00 +33°C° 0 mm 4 mps 741 mmHg 33%
13:00 +33°C° 0 mm 4 mps 740 mmHg 32%
14:00 +34°C° 0 mm 4 mps 740 mmHg 31%
15:00 +33°C° 0 mm 3 mps 740 mmHg 32%
16:00 +33°C° 0 mm 3 mps 740 mmHg 33%
17:00 +33°C° 0 mm 3 mps 740 mmHg 34%
18:00 +30°C° 0 mm 2 mps 740 mmHg 39%
19:00 +28°C° 0 mm 1 mps 740 mmHg 43%
20:00 +27°C° 0 mm 1 mps 740 mmHg 47%
21:00 +26°C° 0 mm 1 mps 741 mmHg 50%
22:00 +25°C° 0 mm 1 mps 741 mmHg 52%
23:00 +24°C° 0 mm 1 mps 741 mmHg 55%

Day after tomorrow, 1 August, Sunday

Time Temperature Precipitation Wind Pressure Humidity
00:00 +23°C° 0 mm 1 mps 741 mmHg 56%
01:00 +23°C° 0 mm 1 mps 741 mmHg 57%
02:00 +23°C° 0 mm 2 mps 741 mmHg 58%
03:00 +21°C° 0 mm 2 mps 741 mmHg 58%
04:00 +21°C° 0 mm 2 mps 741 mmHg 57%
05:00 +21°C° 0 mm 2 mps 741 mmHg 57%
06:00 +25°C° 0 mm 2 mps 741 mmHg 52%
07:00 +27°C° 0 mm 3 mps 741 mmHg 47%
08:00 +29°C° 0 mm 3 mps 741 mmHg 42%
09:00 +32°C° 0 mm 4 mps 741 mmHg 38%
10:00 +33°C° 0 mm 4 mps 741 mmHg 35%
11:00 +35°C° 0 mm 4 mps 741 mmHg 31%
12:00 +35°C° 0 mm 4 mps 741 mmHg 29%
13:00 +36°C° 0 mm 4 mps 740 mmHg 27%
14:00 +36°C° 0 mm 5 mps 740 mmHg 26%
15:00 +36°C° 0 mm 4 mps 740 mmHg 27%
16:00 +35°C° 0 mm 4 mps 740 mmHg 28%
17:00 +35°C° 0 mm 4 mps 740 mmHg 29%
18:00 +33°C° 0 mm 3 mps 740 mmHg 34%
19:00 +29°C° 0 mm 2 mps 740 mmHg 39%
20:00 +27°C° 0 mm 2 mps 739 mmHg 44%
21:00 +26°C° 0 mm 1 mps 740 mmHg 49%
22:00 +25°C° 0 mm 1 mps 740 mmHg 54%
23:00 +24°C° 0 mm 1 mps 740 mmHg 59%

2 August, Monday

Time Temperature Precipitation Wind Pressure Humidity
00:00 +24°C° 0 mm 1 mps 739 mmHg 59%
01:00 +24°C° 0 mm 1 mps 739 mmHg 60%
02:00 +24°C° 0 mm 2 mps 739 mmHg 61%
03:00 +23°C° 0.1 mm 2 mps 739 mmHg 63%
04:00 +23°C° 0.1 mm 2 mps 739 mmHg 65%
05:00 +21°C° 0.1 mm 2 mps 739 mmHg 67%
06:00 +24°C° 0.1 mm 3 mps 739 mmHg 65%
07:00 +25°C° 0.1 mm 3 mps 739 mmHg 64%
08:00 +26°C° 0.1 mm 3 mps 739 mmHg 62%
09:00 +27°C° 0.2 mm 4 mps 739 mmHg 59%
10:00 +29°C° 0.2 mm 5 mps 739 mmHg 56%
11:00 +30°C° 0.2 mm 5 mps 738 mmHg 53%
12:00 +33°C° 0 mm 6 mps 738 mmHg 45%
13:00 +35°C° 0 mm 6 mps 738 mmHg 38%
14:00 +38°C° 0 mm 7 mps 737 mmHg 31%
15:00 +36°C° 0 mm 6 mps 737 mmHg 33%
16:00 +35°C° 0 mm 5 mps 737 mmHg 36%
17:00 +34°C° 0 mm 5 mps 736 mmHg 39%
18:00 +29°C° 2.4 mm 4 mps 736 mmHg 53%
19:00 +26°C° 2.4 mm 3 mps 737 mmHg 67%
20:00 +21°C° 2.4 mm 3 mps 737 mmHg 81%
21:00 +21°C° 0.6 mm 3 mps 737 mmHg 85%
22:00 +20°C° 0.6 mm 3 mps 738 mmHg 89%
23:00 +20°C° 0.6 mm 3 mps 738 mmHg 93%

3 August, Tuesday

Time Temperature Precipitation Wind Pressure Humidity
00:00 +20°C° 0.4 mm 3 mps 738 mmHg 94%
01:00 +19°C° 0.4 mm 3 mps 738 mmHg 95%
02:00 +19°C° 0.4 mm 3 mps 739 mmHg 96%
03:00 +19°C° 0.1 mm 3 mps 739 mmHg 95%
04:00 +18°C° 0.1 mm 3 mps 739 mmHg 95%
05:00 +18°C° 0.1 mm 3 mps 739 mmHg 94%
06:00 +19°C° 0 mm 3 mps 740 mmHg 87%
07:00 +20°C° 0 mm 4 mps 740 mmHg 80%
08:00 +20°C° 0 mm 4 mps 741 mmHg 72%
09:00 +22°C° 0 mm 4 mps 741 mmHg 65%
10:00 +24°C° 0 mm 3 mps 741 mmHg 58%
11:00 +26°C° 0 mm 3 mps 741 mmHg 50%
12:00 +25°C° 0 mm 3 mps 741 mmHg 51%
13:00 +25°C° 0 mm 3 mps 741 mmHg 51%
14:00 +25°C° 0 mm 2 mps 741 mmHg 51%
15:00 +25°C° 0 mm 2 mps 742 mmHg 52%
16:00 +25°C° 0 mm 2 mps 742 mmHg 54%
17:00 +24°C° 0 mm 2 mps 742 mmHg 55%
18:00 +24°C° 0 mm 2 mps 742 mmHg 57%
19:00 +23°C° 0 mm 2 mps 743 mmHg 59%
20:00 +21°C° 0 mm 2 mps 743 mmHg 62%
21:00 +21°C° 0 mm 1 mps 743 mmHg 66%
22:00 +20°C° 0 mm 1 mps 743 mmHg 70%
23:00 +19°C° 0 mm 1 mps 743 mmHg 74%

4 August, Wednesday

Time Temperature Precipitation Wind Pressure Humidity
00:00 +19°C° 0 mm 1 mps 743 mmHg 75%
01:00 +19°C° 0 mm 1 mps 743 mmHg 77%
02:00 +17°C° 0 mm 0 mps 744 mmHg 78%
03:00 +17°C° 0 mm 0 mps 744 mmHg 79%
04:00 +17°C° 0 mm 0 mps 744 mmHg 79%
05:00 +19°C° 0 mm 1 mps 744 mmHg 79%
06:00 +20°C° 0 mm 1 mps 744 mmHg 73%
07:00 +22°C° 0 mm 1 mps 745 mmHg 66%
08:00 +24°C° 0 mm 1 mps 745 mmHg 60%
09:00 +25°C° 0 mm 1 mps 745 mmHg 54%
10:00 +26°C° 0 mm 1 mps 745 mmHg 48%
11:00 +28°C° 0 mm 1 mps 745 mmHg 42%
12:00 +28°C° 0 mm 1 mps 745 mmHg 41%
13:00 +28°C° 0 mm 1 mps 744 mmHg 39%
14:00 +28°C° 0 mm 2 mps 744 mmHg 38%
15:00 +27°C° 0 mm 2 mps 744 mmHg 41%
16:00 +27°C° 0 mm 2 mps 744 mmHg 43%
17:00 +26°C° 0 mm 2 mps 744 mmHg 46%
18:00 +25°C° 0 mm 2 mps 744 mmHg 50%
19:00 +23°C° 0 mm 2 mps 744 mmHg 54%
20:00 +21°C° 0 mm 2 mps 744 mmHg 58%
21:00 +20°C° 0 mm 2 mps 744 mmHg 60%
22:00 +19°C° 0 mm 2 mps 745 mmHg 62%
23:00 +19°C° 0 mm 2 mps 745 mmHg 64%
Show more